Change the Weather History Date:

Monday, November 19, 2012

  Actual Average Record
Temperature  
Mean Temperature -5 °F -  
Max Temperature 1 °F 0 °F 21 °F (2002)
Min Temperature -11 °F -9 °F -23 °F (2013)
Degree Days  
Heating Degree Days 70    
Moisture  
Dew Point -12 °F    
Average Humidity 67    
Maximum Humidity 78    
Minimum Humidity 49    
Precipitation  
Precipitation 0.00 in - - ()
Sea Level Pressure  
Sea Level Pressure 30.13 in    
Wind  
Wind Speed 6 mph ()    
Max Wind Speed 10 mph    
Max Gust Speed -    
Visibility 10.3 miles    
Events      
Averages and records for this station are not official NWS values.
T = Trace of Precipitation, MM = Missing Value Source: Averaged Metar Reports

Daily Weather History Graph

Daily Weather History Graph

Search for Another Location

Airport or City:

Trip Planner

Search our weather history database for the weather conditions in past years. The results will help you decide how hot, cold, wet, or windy it might be!

Date:

Astronomy

Nov. 19, 2012 Rise Set
Actual Time 11:24 AM EST 12:29 PM EST
Civil Twilight 9:19 AM EST 2:34 PM EST
Nautical Twilight 7:32 AM EST 4:21 PM EST
Astronomical Twilight 6:06 AM EST 5:46 PM EST
Moon 1:59 PM EST (11/19) 9:36 PM EST (11/19)
Length of Visible Light 5h 14m
Length of Day
1h 04m
Waxing Crescent, 40% of the Moon is Illuminated
Nov 19
Waxing Crescent
Nov 20
First Quarter
Nov 28
Full
Dec 6
Last Quarter
Dec 13
New

Hourly Weather History & Observations

Time (EST) Temp. Windchill Dew Point Humidity Pressure Visibility Wind Dir Wind Speed Gust Speed Precip Events Conditions
12:00 AM -5.8 °F - -13.0 °F 71% 30.06 in 9.0 mi SE 2.3 mph - N/A   Mostly Cloudy
12:47 AM -7.6 °F -16.5 °F -13.0 °F 77% 30.04 in 9.0 mi SSE 3.5 mph - N/A   Partly Cloudy
1:00 AM -7 °F - -14 °F 60% 30.07 in 9 mi SSE 3.5 mph - -  
1:00 AM -5.8 °F -14.5 °F -13.0 °F 71% 30.07 in 9.0 mi SSE 3.5 mph - N/A   Clear
2:00 AM -5.8 °F -21.2 °F -14.8 °F 65% 30.09 in 9.0 mi SE 8.1 mph - N/A   Overcast
2:26 AM -4.0 °F -19.0 °F -13.0 °F 65% 30.07 in 9.0 mi SSE 8.1 mph - N/A   Overcast
2:40 AM -2.2 °F -16.8 °F -7.6 °F 78% 30.07 in 9.0 mi SSE 8.1 mph - N/A   Overcast
3:00 AM -2.2 °F -15.6 °F -9.4 °F 71% 30.10 in 9.0 mi SSE 6.9 mph - N/A   Overcast
4:00 AM 1 °F - -6 °F 60% 30.11 in 9 mi South 5.8 mph - -   Overcast
4:00 AM 1.4 °F -9.9 °F -5.8 °F 72% 30.11 in 9.0 mi South 5.8 mph - N/A   Overcast
4:34 AM -0.4 °F -13.4 °F -7.6 °F 72% 30.08 in 9.0 mi South 6.9 mph - N/A   Overcast
5:00 AM -2.2 °F -15.6 °F -9.4 °F 71% 30.12 in 9.0 mi South 6.9 mph - N/A   Overcast
6:00 AM -4.0 °F -16.3 °F -11.2 °F 71% 30.12 in 9.0 mi South 5.8 mph - N/A   Scattered Clouds
6:18 AM -4.0 °F -16.3 °F -11.2 °F 71% 30.09 in 9.0 mi South 5.8 mph - N/A   Overcast
7:00 AM 1 °F - -7 °F 55% 30.13 in 9 mi SSW 4.6 mph - -   Overcast
7:20 AM -0.4 °F -12.0 °F -5.8 °F 78% 30.10 in 9.0 mi SW 5.8 mph - N/A   Overcast
8:00 AM -2.2 °F -14.2 °F -9.4 °F 71% 30.14 in 9.0 mi SSW 5.8 mph - N/A   Overcast
9:00 AM -2.2 °F -15.6 °F -9.4 °F 71% 30.14 in 9.0 mi South 6.9 mph - N/A   Overcast
10:00 AM -1 °F - -8 °F 60% 30.14 in 9 mi South 6.9 mph - -   Overcast
10:00 AM -0.4 °F -14.7 °F -7.6 °F 72% 30.14 in 9.0 mi South 8.1 mph - N/A   Overcast
11:00 AM -2.2 °F -16.8 °F -9.4 °F 71% 30.14 in 15.0 mi SSW 8.1 mph - N/A   Mostly Cloudy
12:00 PM -2.2 °F -16.8 °F -11.2 °F 66% 30.15 in 15.0 mi SSW 8.1 mph - N/A   Mostly Cloudy
1:00 PM -4 °F - -11 °F 60% 30.16 in 9 mi South 10.4 mph - -   Overcast
1:00 PM -4.0 °F -21.2 °F -11.2 °F 71% 30.16 in 15.0 mi South 10.4 mph - N/A   Mostly Cloudy
2:00 PM -5.8 °F -22.4 °F -14.8 °F 65% 30.16 in 15.0 mi South 9.2 mph - N/A   Scattered Clouds
3:00 PM -7.6 °F -23.4 °F -14.8 °F 71% 30.16 in 15.0 mi South 8.1 mph - N/A   Mostly Cloudy
4:00 PM -8 °F - -16 °F 53% 30.17 in 9 mi South 6.9 mph - -  
4:00 PM -7.6 °F -22.1 °F -16.6 °F 65% 30.17 in 15.0 mi South 6.9 mph - N/A   Scattered Clouds
5:00 PM -9.4 °F -25.6 °F -18.4 °F 65% 30.17 in 15.0 mi South 8.1 mph - N/A   Partly Cloudy
6:00 PM -11.2 °F -29.0 °F -18.4 °F 70% 30.18 in 15.0 mi South 9.2 mph - N/A   Partly Cloudy
7:00 PM -9 °F - -18 °F 49% 30.17 in 9 mi South 9.2 mph - -  
7:00 PM -9.4 °F -26.8 °F -18.4 °F 65% 30.17 in 9.0 mi South 9.2 mph - N/A   Mostly Cloudy
8:00 PM -4.0 °F -17.8 °F -13.0 °F 65% 30.17 in 9.0 mi South 6.9 mph - N/A   Overcast
9:00 PM -4.0 °F -19.0 °F -13.0 °F 65% 30.17 in 9.0 mi South 8.1 mph - N/A   Overcast
10:00 PM -5 °F - -14 °F 50% 30.17 in 9 mi SSW 6.9 mph - -   Overcast
10:00 PM -5.8 °F -19.9 °F -13.0 °F 71% 30.17 in 9.0 mi SSW 6.9 mph - N/A   Overcast
11:00 PM -4.0 °F -17.8 °F -13.0 °F 65% 30.18 in 9.0 mi SSW 6.9 mph - N/A   Overcast